This demonstration page uses our WeatherBlox Daily Observations layout. Learn more.

Hourly Observations for November 30, 2016

Temp ( °F °C ) Dew Point ( °F °C ) Humidity (%) Winds ( mph kmh ) Pressure ( in mb ) Visibility ( mi km ) Precip ( " mm )
12:08 am 00:08 Cloudy 36 2.2 25 -3.9 64 64 NW 13 20 29.77 1008 10 16.0934 0 0
12:18 am 00:18 Cloudy 36 2 25 -4 65 65 NW 13 20 29.77 1008 10 16.0934 0 0
12:44 am 00:44 Cloudy 36 2 25 -4 65 65 NW 14 22 29.77 1008 10 16.0934 0 0
12:54 am 00:54 Cloudy 36 2.2 25 -3.9 64 64 NW 13 20 29.75 1008 10 16.0934 0 0
1:54 am 01:54 Cloudy 35 1.7 24 -4.4 64 64 NW 18 30 29.76 1008 10 16.0934 0 0
2:06 am 02:06 Cloudy 35 1.7 23 -5 61 61 NW 20 31 29.77 1008 10 16.0934 0 0
2:54 am 02:54 Cloudy 35 1.7 24 -4.4 64 64 WNW 14 22 29.77 1008 10 16.0934 0 0
3:26 am 03:26 Cloudy 35 1.7 24 -4.4 64 64 WNW 14 22 29.77 1008 10 16.0934 0 0
3:54 am 03:54 Cloudy 35 1.7 24 -4.4 64 64 WNW 13 20 29.76 1008 10 16.0934 0 0
4:02 am 04:02 Cloudy 36 2 25 -4 65 65 WNW 17 28 29.77 1008 10 16.0934 0 0
4:54 am 04:54 Cloudy 34 1.1 24 -4.4 67 67 WNW 16 26 29.76 1008 10 16.0934 0 0
5:54 am 05:54 Cloudy 34 1.1 23 -5 64 64 NW 20 31 29.77 1008 10 16.0934 0 0
6:54 am 06:54 Cloudy 34 1.1 23 -5 64 64 WNW 16 26 29.77 1008 10 16.0934 0 0
7:54 am 07:54 Cloudy 33 0.6 23 -5 66 66 NW 15 24 29.77 1008 10 16.0934 0 0
8:54 am 08:54 Cloudy 33 0.6 24 -4.4 70 70 NW 18 30 29.78 1009 10 16.0934 0 0
9:54 am 09:54 Cloudy 34 1.1 24 -4.4 67 67 NW 17 28 29.8 1009 10 16.0934 0 0
10:44 am 10:44 Cloudy 36 2 23 -5 60 60 NW 22 35 29.8 1009 10 16.0934 0 0
10:54 am 10:54 Cloudy 36 2.2 23 -5 59 59 WNW 22 35 29.8 1009 10 16.0934 0 0
11:54 am 11:54 Cloudy 36 2.2 24 -4.4 62 62 WNW 21 33 29.8 1009 10 16.0934 0 0
12:26 pm 12:26 Cloudy 36 2 25 -4 65 65 WNW 18 30 29.8 1009 10 16.0934 0 0
12:51 pm 12:51 Cloudy 36 2 23 -5 60 60 NW 18 30 29.8 1009 10 16.0934 0 0
12:54 pm 12:54 Cloudy 36 2.2 23 -5 59 59 WNW 21 33 29.8 1009 10 16.0934 0 0
1:54 pm 13:54 Cloudy 37 2.8 23 -5 57 57 WNW 21 33 29.81 1009 10 16.0934 0 0
2:54 pm 14:54 Cloudy 37 2.8 24 -4.4 59 59 NW 21 33 29.82 1010 10 16.0934 0 0
3:54 pm 15:54 Cloudy 37 2.8 23 -5 57 57 NW 20 31 29.85 1011 10 16.0934 0 0
4:54 pm 16:54 Cloudy 36 2.2 23 -5 59 59 NW 15 24 29.87 1011 10 16.0934 0 0
5:54 pm 17:54 Cloudy 35 1.7 24 -4.4 64 64 WNW 14 22 29.88 1012 10 16.0934 0 0
6:54 pm 18:54 Cloudy 35 1.7 23 -5 61 61 WNW 12 19 29.9 1013 10 16.0934 0 0
7:54 pm 19:54 Cloudy 33 0.6 23 -5 66 66 WNW 10 17 29.91 1013 10 16.0934 0 0
8:54 pm 20:54 Clear 31 -0.6 23 -5 72 72 W 5 7 29.92 1013 10 16.0934 0 0
9:52 pm 21:52 Mostly Cloudy 30 -1 23 -5 75 75 W 8 13 29.97 1015 10 16.0934 0 0
9:54 pm 21:54 Mostly Cloudy 31 -0.6 23 -5 72 72 W 9 15 29.93 1014 10 16.0934 0 0
10:14 pm 22:14 Partly Cloudy 31 -0.6 23 -5 72 72 W 8 13 29.97 1015 10 16.0934 0 0
10:54 pm 22:54 Clear 30 -1.1 23 -5 75 75 W 9 15 29.96 1015 10 16.0934 0 0
11:33 pm 23:33 Mostly Cloudy 30 -1.1 22 -5.6 72 72 W 9 15 30 1016 10 16.0934 0 0
11:50 pm 23:50 Partly Cloudy 28 -2 21 -6 74 74 W 8 13 30 1016 10 16.0934 0 0
11:54 pm 23:54 Partly Cloudy 29 -1.7 22 -5.6 75 75 W 8 13 29.97 1015 10 16.0934 0 0

Powered by AerisWeather